Regional Weather Roundup
Issued by NWS Jackson, KY

Home | Current Version | Previous Version | Graphics & Text | Print | Product List | Glossary On
Versions: 1 2 3 4 5 6 7 8 9 10 11 12 13 14 15 16 17 18 19 20 21 22 23 24 25 26 27 28 29 30 31 32 33 34 35 36 37 38 39 40 41 42 43 44 45 46 47 48 49 50
000
ASUS43 KJKL 131110
RWRJKL

EAST KENTUCKY HOURLY WEATHER ROUNDUP
NATIONAL WEATHER SERVICE JACKSON KY
600 AM EST SAT FEB 13 2016

NOTE: "FAIR" INDICATES FEW OR NO CLOUDS BELOW 12,000 FEET WITH
NO SIGNIFICANT WEATHER AND/OR OBSTRUCTIONS TO VISIBILITY.

* THESE REPORTS ARE NOT UNDER NWS QUALITY CONTROL AND MAY NOT
  REPORT WEATHER SUCH AS PRECIPITATION AND FOG.

KYZ079-080-083-085-087-088-110-112-115-119-120-131200
...EASTERN KENTUCKY...

CITY           SKY/WX    TMP DP  RH WIND       PRES   REMARKS
JACKSON        LGT SNOW  16   9  74 VRB6      30.34R WCI   7
LONDON         CLOUDY    19  10  68 N9        30.37R WCI   8
SOMERSET*      CLEAR     19   7  58 N6        30.43R WCI  11
MONTICELLO*    PTCLDY    19   8  62 N12G17    30.43R WCI   7
WILLIAMSBURG*  CLOUDY    19  10  68 NW6       30.37R WCI  11
MIDDLESBORO*   FLURRIES  22  13  67 N5        30.36R WCI  16
HARLAN APT*    CLOUDY    21  10  63 SW5       30.30R WCI  15
HAZARD APT*    CLOUDY    14   3  62 NW8       30.35R WCI   3
BLACK MTN*       N/A      7   7 100 NE10        N/A  WCI  -8
BIG SANDY*     CLOUDY    17   6  64 N7G17     30.34R WCI   7
MOREHEAD APT*  CLOUDY    16   3  57 NW6G13    30.41R WCI   7
$$

KYZ035-036-041-042-044-050-067-078-099-131200
...CENTRAL KENTUCKY...

CITY           SKY/WX    TMP DP  RH WIND       PRES   REMARKS
MT STERLING*   MOCLDY    16   9  73 N6        30.42R WCI   7
DANVILLE*      CLOUDY    18   9  68 N8        30.43R WCI   7
RICHMOND*      CLOUDY    18   5  57 NW7       30.41R WCI   8
LEXINGTON      MOCLDY    15   5  64 NW9       30.42R WCI   3
FRANKFORT      CLEAR     16   2  54 NW7       30.44R WCI   6
$$

KYZ091>093-OHZ055-061-077-WVZ005-015-034-035-042-131200
...SOUTHERN OHIO/WEST VIRGINIA...

CITY           SKY/WX    TMP DP  RH WIND       PRES   REMARKS
COVINGTON      MOCLDY    12   2  64 NW12      30.43R WCI  -2
COLUMBUS       CLEAR      7  -6  55 NW10      30.38R WCI  -8
DAYTON         PTCLDY     7  -4  60 N13       30.42R WCI  -9
WILMINGTON     MOCLDY    10  -2  58 N13       30.39R WCI  -5
HUNTINGTON       N/A     15   3  59 NW7       30.38R WCI   5
CHARLESTON       N/A     15   3  59 N13G18    30.34R WCI   1
PINEVILLE*     LGT SNOW  15   8  73 MISG      30.29R
BECKLEY        LGT SNOW  10   4  76 NW10      30.15R WCI  -4
$$

VAZ002-007-008-TNZ017-027-036-066-071-131200
...SOUTHWEST VIRGINIA/EAST TENNESSEE...

CITY           SKY/WX    TMP DP  RH WIND       PRES   REMARKS
BRISTOL        FLURRIES  21  13  71 NW15      30.28R WCI   8
KNOXVILLE      PTCLDY    24  11  57 N7        30.36R WCI  16
OAK RIDGE      CLOUDY    25   8  48 N9        30.38R WCI  15
CROSSVILLE     PTCLDY    19   8  62 N6G20     30.32R WCI  11
NASHVILLE      CLEAR     23   8  52 N10       30.48R WCI  12
$$

...KEY TO REMARKS...
VSB - VISIBILITY IN MILES
WCI - WIND CHILL INDEX
HX  - HEAT INDEX

$$



USA.gov is the U.S. government's official web portal to all federal, state and local government web resources and services.